Orbital Elements at Epoch 2459000.5 (2020-May-31.0) TDB
Reference: JPL 23 (heliocentric ecliptic J2000)
Element | Value | Uncertainty (1-sigma) | Units |
e | .06230759360540503 | 4.5913e-08 | |
a | 2.399207699330842 | 1.2407e-08 | au |
q | 2.249718841025977 | 1.0903e-07 | au |
i | 6.112044268204073 | 5.0119e-06 | deg |
node | 243.7216498235551 | 3.8629e-05 | deg |
peri | 311.4596216284354 | 5.1242e-05 | deg |
M | 51.82693500232211 | 3.3887e-05 | deg |
tp | 2458805.087103721272 (2019-Nov-17.58710372) | 0.00012767 | TDB |
period | 1357.376095213623 3.72 | 1.0529e-05 2.883e-08 | d yr |
n | .2652175776996746 | 2.0573e-09 | deg/d |
Q | 2.548696557635707 | 1.318e-08 | au |
|
| | Orbit Determination Parameters
Additional Information
|